Location: Hodgson Observatory
(42.9992°N, 96.7577°W)
Time: 17:34:16
(UTC-05:00)

Daily predictions for brighter satellites

Satellite Brightness Start Highest point End
(mag) Time Altitude Azimuth Time Altitude Azimuth Time Altitude Azimuth
Cosmos 1680 Rocket 4.3 21:18:41 10° SSE 21:23:10 30° E 21:27:39 10° NE
Cosmos 1346 4.3 21:24:28 10° SE 21:26:37 20° E 21:28:46 10° NE
SPOT 5 4.4 21:24:05 10° ESE 21:26:56 17° ENE 21:29:48 10° NNE
Cosmos 1743 3.2 21:24:24 10° N 21:28:08 43° ENE 21:31:51 10° SSE
Iridium 4 Rocket 4.1 21:29:32 10° N 21:34:25 62° W 21:39:45 10° SSW
Cosmos 1709 Rocket 4.5 21:30:28 10° NNW 21:36:41 65° W 21:42:47 10° S
Envisat 3.2 21:31:49 10° S 21:36:54 79° WSW 21:42:00 10° NNW
Spot 1 4.3 21:33:21 10° SSE 21:37:56 81° WSW 21:42:17 10° NNW
ASTEX 1 3.8 21:37:12 10° SSE 21:41:51 45° ENE 21:46:31 10° N
Tiangong 2 2.5 21:40:44 10° SSW 21:43:11 20° SSE 21:45:36 10° E
Aureole 3 Rocket 3.8 21:43:22 10° S 21:50:03 64° E 21:54:47 10° NNE
Okean 1-7 Rocket 4.4 21:46:30 10° SSE 21:50:28 33° E 21:54:31 10° NNE
Cosmos 1238 Rocket 4.4 21:47:59 10° SSE 21:54:24 51° E 22:00:44 10° NNE
USA 186 4.4 21:52:12 10° SW 21:54:36 19° W 21:56:59 10° NW
Meteor 2-9 Rocket 4.4 21:49:26 10° N 21:54:47 53° ENE 21:59:47 12° SSE
Aureole 1 Rocket 2.8 21:52:26 10° S 21:55:37 36° ESE 21:58:27 10° NE
ISS -2.6 21:53:24 10° S 21:56:02 22° SE 21:58:42 10° E
Cosmos 1666 2.6 21:54:52 10° N 21:58:37 67° E 22:01:55 13° SSE
DNEPR-1 R/B 3.6 21:56:52 10° NNW 22:01:07 69° NE 22:04:38 16° SE
NOSS 2-2 (E) 3.7 21:57:32 10° SW 22:01:34 76° NW 22:06:21 10° NE
Meteor 2-4 Rocket 3.8 21:57:11 10° S 22:02:42 62° E 22:08:25 10° NNE
DEBRIS 3.8 22:02:21 10° SW 22:05:50 79° SSE 22:18:01 10° ENE
OAO 2 Rocket 4.1 22:02:35 10° SW 22:06:56 31° S 22:10:00 17° ESE
CZ-4B DEB 4.3 22:05:06 10° SSW 22:07:47 30° W 22:10:30 10° NNW
Cosmos 1437 4.2 22:05:19 10° SSW 22:08:20 39° WNW 22:11:25 10° N
Cosmos 923 Rocket 4.1 22:03:13 10° SSW 22:08:34 83° WNW 22:13:54 10° NNE
Meteor 2-13 Rocket 4.5 22:03:39 10° N 22:09:44 85° W 22:15:48 10° S
Cosmos 1833 Rocket 4.5 22:11:23 12° ESE 22:12:00 12° E 22:14:05 10° ENE
Lacrosse 5 rocket 4.4 22:11:26 10° NW 22:14:04 15° N 22:16:45 10° NNE
Cosmos 1606 Rocket 4.3 22:12:30 10° N 22:16:31 37° ENE 22:18:50 21° SE
Cosmos 2184 Rocket 4.2 22:10:35 10° N 22:16:57 76° W 22:23:14 10° S
Cosmos 2074 Rocket 4.2 22:10:51 10° NNW 22:17:04 73° W 22:23:17 10° S
USA 245 3.0 22:16:11 27° ESE 22:17:04 36° ENE 22:19:23 10° N
YAOGAN 6 3.6 22:16:43 10° S 22:20:03 41° W 22:23:23 10° NNW
Cosmos 1610 Rocket 4.5 22:14:36 10° N 22:20:56 83° E 22:26:24 14° S
YAOGAN 11 4.0 22:18:34 19° SSE 22:21:33 71° ENE 22:25:52 10° N
ERS-1 Rocket 3.3 22:21:29 11° S 22:26:11 63° WSW 22:31:12 10° NNW
Cosmos 1656 Rocket 4.4 22:21:12 10° NW 22:26:23 46° WSW 22:31:14 12° S
Cosmos 1726 Rocket 4.1 22:23:23 10° N 22:27:29 40° ENE 22:29:29 25° SE
Cosmos 405 Rocket 4.0 22:24:12 10° SSW 22:27:43 39° WNW 22:31:21 10° N
GENESIS II 4.2 22:24:00 10° NW 22:27:59 78° WSW 22:30:03 26° SSE
Cosmos 1515 4.5 22:28:01 27° SE 22:29:14 33° E 22:32:42 10° NNE
MetOp-A 4.2 22:26:30 15° S 22:30:56 78° WSW 22:36:20 10° NNW
Meteor 1-23 Rocket 4.1 22:26:31 10° S 22:32:05 84° E 22:37:43 10° NNE
USA 267 4.3 22:29:14 10° ENE 22:33:51 20° ESE 22:34:02 20° SE
Cosmos 2058 Rocket 3.9 22:30:01 10° N 22:34:06 35° ENE 22:35:51 25° ESE
Intercosmos 24 3.7 22:31:44 10° N 22:35:51 85° W 22:37:49 26° S
H-2A R/B 2.2 22:33:29 24° SE 22:36:17 56° ENE 22:41:12 10° N
Cosmos 1980 Rocket 4.3 22:34:59 10° N 22:38:24 16° NE 22:41:48 10° E
Cosmos 1025 Rocket 3.0 22:35:24 14° S 22:39:07 82° W 22:43:25 10° N
Meteor 1-15 Rocket 4.2 22:34:33 10° N 22:40:11 88° ENE 22:43:56 22° S
Cosmos 1441 Rocket 3.8 22:36:40 10° SSW 22:40:20 54° WNW 22:44:01 10° N
Cosmos 192 4.4 22:35:46 10° SSW 22:40:40 78° WNW 22:45:36 10° NNE
MOS 1-B Rocket 4.1 22:36:34 16° S 22:41:10 71° WSW 22:47:30 10° NNW
Cosmos 2112 Rocket 4.4 22:36:13 10° SSW 22:41:24 65° WNW 22:46:35 10° NNE
PSLV R/B 3.2 22:39:37 10° W 22:42:40 52° S 22:43:04 48° SSE
Cosmos 962 Rocket 4.5 22:39:53 10° N 22:46:10 74° E 22:50:03 24° SSE
Cosmos 1624 Rocket 4.0 22:43:13 10° NNW 22:48:32 80° ENE 22:51:17 29° SSE
CENTAUR R/B 3.9 22:42:41 10° NW 22:50:08 44° WSW 22:56:31 16° S
SL-27 R/B 3.7 22:49:21 10° SW 22:52:51 43° WNW 22:56:22 10° N
SL-08 RB Rocket 3.8 22:52:50 27° S 22:55:13 72° WSW 22:59:43 10° NNW
ARGOS 3.6 22:55:04 20° S 22:58:43 59° W 23:04:05 10° NNW
Cosmos 2154 Rocket 4.3 22:54:16 10° NNW 23:00:33 65° W 23:05:15 19° S
Nimbus 7 Rocket 4.4 22:55:01 10° NNE 23:01:07 89° W 23:06:25 14° SSW
Landsat 7 3.8 23:00:33 35° SSE 23:02:32 75° ENE 23:07:17 10° N
H-2A R/B 2.5 23:01:56 36° SE 23:03:24 51° ENE 23:07:49 10° N
SPOT 5 3.4 23:02:18 23° SSW 23:04:41 45° W 23:08:52 10° NNW
SL-8 Rocket 4.1 22:58:28 10° N 23:04:41 64° E 23:07:42 32° SSE
Cosmos 2056 Rocket 3.5 23:02:05 10° NNW 23:07:16 76° WSW 23:09:30 34° S
Cosmos 2278 3.7 23:02:29 10° NNW 23:08:13 72° ENE 23:10:40 35° SE
Cosmos 2366 rocket 4.3 23:02:43 10° N 23:08:43 50° ENE 23:11:14 32° SE
Cosmos 2082 Rocket 2.6 23:09:49 35° SE 23:11:22 43° ESE 23:16:42 10° NE
Iridium 82 4.4 23:10:01 10° N 23:13:35 85° W 23:14:11 60° S
Cosmos 1626 Rocket 4.1 23:14:23 38° ESE 23:14:42 39° E 23:18:44 10° NNE
Terra 1.8 23:16:04 43° SSE 23:17:35 74° ENE 23:22:21 10° N
CZ-4B R/B 4.0 23:13:37 10° NNE 23:18:21 39° E 23:19:05 37° ESE
Tiangong 2 2.8 23:16:27 10° WSW 23:17:53 24° WSW 23:17:53 24° WSW
COSMOS 2487 2.4 23:21:12 71° E 23:21:12 71° E 23:24:41 10° NNE
Cosmos 1437 Rocket 4.2 23:20:04 10° NNW 23:23:28 31° W 23:24:52 24° SW
Spot 4 4.3 23:24:26 39° ESE 23:25:36 47° ENE 23:30:13 10° N
Cosmos 2369 3.7 23:21:05 10° NNW 23:26:51 83° WSW 23:28:55 42° SSE
SPOT 1/Viking Rocket 4.3 23:24:55 25° SSW 23:27:30 44° W 23:32:26 10° NNW
Cosmos 967 Rocket 4.5 23:24:00 10° SW 23:30:16 82° WNW 23:36:36 10° NNE
Cosmos 1953 4.4 23:28:11 10° NNE 23:30:49 16° ENE 23:30:57 16° ENE
ISS -2.9 23:29:08 10° WSW 23:32:21 49° NNW 23:35:35 10° NE
IGS 5A 3.4 23:33:12 60° S 23:33:53 78° W 23:38:04 10° NNW
Cosmos 1959 Rocket 4.5 23:29:07 10° N 23:35:31 90° WSW 23:38:06 39° S
SL-08 R/B 4.4 23:29:41 10° N 23:35:50 81° E 23:38:03 42° SSE
SL-16 R/B 4.4 23:32:48 10° N 23:36:21 17° NE 23:39:54 10° E
Cosmos 1697 Rocket 2.9 23:30:49 10° NNW 23:36:25 61° ENE 23:38:09 42° ESE
Cosmos 839 Rocket 4.5 23:31:40 10° NW 23:38:10 66° WSW 23:41:31 35° S
Cosmos 1452 Rocket 3.4 23:34:16 10° NNW 23:39:34 86° ENE 23:40:54 52° SSE
DELTA 2 DEB (DPAF) 4.3 23:39:21 51° ESE 23:39:58 57° ENE 23:44:23 10° N
Cosmos 1271 Rocket 3.7 23:37:24 10° N 23:40:49 35° ENE 23:40:49 35° ENE
Cosmos 2228 3.7 23:38:39 10° NNW 23:42:48 47° W 23:43:46 39° SW
Cosmos 2218 Rocket 4.0 23:38:54 10° N 23:45:03 77° W 23:47:26 40° S
deb Chang Zheng 4 3.7 23:43:33 10° N 23:47:52 72° WNW 23:48:47 53° SW
Cosmos 1602 Rocket 3.4 23:47:45 73° S 23:48:10 88° E 23:52:31 10° N
Cosmos 921 Rocket 4.0 23:44:39 10° NNW 23:48:49 38° W 23:49:41 34° SW
Lacrosse 5 rocket 4.3 23:51:56 10° NNW 23:54:59 17° NNE 23:58:01 10° NE
